This is the latest recevied weather packets stored in our database for station/object KA3WVU. If no packets are shown the sender has not sent any weather packets the latest 10 day(s).
| Time | Temp. | Humidity | Pressure | Rain* | Wind** | Luminosity | Snow |
|---|---|---|---|---|---|---|---|
| 1777821292 | 7.78° C | 51% | 1014.5 hPa | 0 mm | - | 106 W/m² | - |
| 1777820989 | 7.22° C | 50% | 1014.8 hPa | 0 mm | - | 497 W/m² | - |
| 1777820685 | 7.22° C | 50% | 1014.6 hPa | 0 mm | - | 648 W/m² | - |
| 1777820381 | 6.67° C | 53% | 1014.6 hPa | 0 mm | - | 597 W/m² | - |
| 1777820079 | 6.67° C | 55% | 1014.5 hPa | 0 mm | - | 636 W/m² | - |
| 1777819776 | 6.11° C | 57% | 1014.8 hPa | 0 mm | - | 81 W/m² | - |
| 1777819474 | 5.56° C | 58% | 1014.7 hPa | 0 mm | - | 96 W/m² | - |
| 1777819171 | 6.11° C | 54% | 1014.5 hPa | 0 mm | - | 94 W/m² | - |
| 1777818867 | 6.67° C | 58% | 1014.7 hPa | 0 mm | - | 539 W/m² | - |
| 1777818563 | 6.11° C | 60% | 1014.7 hPa | 0 mm | - | 596 W/m² | - |
| 1777818261 | 5.56° C | 59% | 1014.7 hPa | 0 mm | - | 563 W/m² | - |
| 1777817957 | 5.56° C | 58% | 1014.7 hPa | 0 mm | - | 166 W/m² | - |
| 1777817655 | 5.56° C | 61% | 1014.7 hPa | 0 mm | - | 227 W/m² | - |
| 1777817351 | 5.56° C | 63% | 1014.8 hPa | 0 mm | - | 448 W/m² | - |
| 1777817048 | 5° C | 60% | 1014.4 hPa | 0 mm | - | 284 W/m² | - |
| 1777816743 | 5.56° C | 61% | 1014.6 hPa | 0 mm | - | 91 W/m² | - |
| 1777816441 | 4.44° C | 68% | 1014.6 hPa | 0 mm | - | 490 W/m² | - |
| 1777816139 | 4.44° C | 70% | 1014.6 hPa | 0 mm | - | 250 W/m² | - |
| 1777815837 | 3.89° C | 71% | 1015 hPa | 0 mm | - | 201 W/m² | - |
| 1777815534 | 3.89° C | 70% | 1014.7 hPa | 0 mm | - | 265 W/m² | - |
| 1777815231 | 3.89° C | 72% | 1014.8 hPa | 0 mm | - | 223 W/m² | - |
| 1777814927 | 3.33° C | 73% | 1014.8 hPa | 0 mm | - | 199 W/m² | - |
| 1777814624 | 2.78° C | 74% | 1014.7 hPa | 0 mm | - | 269 W/m² | - |
| 1777814321 | 2.78° C | 75% | 1014.8 hPa | 0 mm | - | 123 W/m² | - |
| 1777814017 | 2.78° C | 76% | 1014.9 hPa | 0 mm | - | 136 W/m² | - |
* Rain latest hour (hover to see other rain measurements)
** Current wind speed in m/s (hover to see current wind gust speed)